Change the Weather History Date:

Sunday, January 27, 2013

  Actual Average Record
Temperature  
Mean Temperature 8 °F 10 °F  
Max Temperature 13 °F 19 °F 52 °F (1986)
Min Temperature 3 °F 0 °F -27 °F (2009)
Degree Days  
Heating Degree Days 57 55  
Month to date heating degree days 1474 1481  
Since 1 July heating degree days 4654 5075  
Cooling Degree Days 0 0  
Month to date cooling degree days 0 0  
Year to date cooling degree days 0 0  
Moisture  
Dew Point -3 °F    
Average Humidity 63    
Maximum Humidity 72    
Minimum Humidity 53    
Precipitation  
Precipitation 0.00 in 0.09 in 1.04 in (1996)
Month to date precipitation 1.46 2.38  
Year to date precipitation 1.46 2.38  
Snow  
Snow 0.00 in 0.90 in 9.90 in (1963)
Month to date snowfall 14.7 22.0  
Since 1 July snowfall 43.2 57.1  
Snow Depth 6.00 in    
Sea Level Pressure  
Sea Level Pressure 30.17 in    
Wind  
Wind Speed 12 mph (NW)    
Max Wind Speed 24 mph    
Max Gust Speed 32 mph    
Visibility 10 miles    
Events      
T = Trace of Precipitation, MM = Missing Value Source: NWS Daily Summary

Daily Weather History Graph

Daily Weather History Graph

Search for Another Location

Airport or City:

Trip Planner

Search our weather history database for the weather conditions in past years. The results will help you decide how hot, cold, wet, or windy it might be!

Date:

Astronomy

Jan. 27, 2013 Rise Set
Actual Time 7:02 AM EST 4:28 PM EST
Civil Twilight 6:29 AM EST 5:01 PM EST
Nautical Twilight 5:52 AM EST 5:37 PM EST
Astronomical Twilight 5:16 AM EST 6:13 PM EST
Moon 5:25 PM EST (1/27) 6:47 AM EST (1/27)
Length of Visible Light 10h 31m
Length of Day
9h 25m
Full, 100% of the Moon is Illuminated
Jan 27
Full
Feb 3
Last Quarter
Feb 10
New
Feb 17
First Quarter
Feb 25
Full

Hourly Weather History & Observations

Time (EST) Temp. Windchill Dew Point Humidity Pressure Visibility Wind Dir Wind Speed Gust Speed Precip Events Conditions
12:54 AM 3.9 °F -14.3 °F -5.1 °F 66% 30.00 in 10.0 mi NW 15.0 mph 24.2 mph N/A   Overcast
1:54 AM 3.0 °F -14.1 °F -6.0 °F 66% 30.04 in 10.0 mi NW 12.7 mph 21.9 mph N/A   Overcast
2:54 AM 3.9 °F -11.3 °F -5.1 °F 66% 30.04 in 10.0 mi NW 10.4 mph 19.6 mph N/A   Overcast
3:54 AM 3.9 °F -13.0 °F -5.1 °F 66% 30.04 in 10.0 mi WNW 12.7 mph - N/A   Scattered Clouds
4:54 AM 3.0 °F -11.5 °F -5.1 °F 69% 30.06 in 10.0 mi WNW 9.2 mph - N/A   Partly Cloudy
5:54 AM 5.0 °F -8.1 °F -4.0 °F 66% 30.07 in 10.0 mi WNW 8.1 mph - N/A   Overcast
6:54 AM 7.0 °F -13.1 °F -2.0 °F 67% 30.09 in 10.0 mi NW 20.7 mph 26.5 mph N/A   Overcast
7:54 AM 7.0 °F -9.1 °F -2.0 °F 67% 30.12 in 10.0 mi NW 12.7 mph 21.9 mph N/A   Overcast
8:54 AM 7.0 °F -9.1 °F -2.9 °F 64% 30.14 in 10.0 mi NW 12.7 mph 23.0 mph N/A   Overcast
9:54 AM 8.1 °F -12.6 °F -2.0 °F 64% 30.17 in 10.0 mi NNW 23.0 mph 26.5 mph N/A   Overcast
10:52 AM 8.6 °F -5.5 °F -2.2 °F 62% 30.11 in 10.0 mi NW 10.4 mph 19.6 mph N/A   Overcast
10:54 AM 9.0 °F -5.9 °F -2.0 °F 61% 30.17 in 10.0 mi NW 11.5 mph - N/A   Overcast
11:54 AM 10.0 °F -7.1 °F -0.0 °F 64% 30.16 in 10.0 mi NW 16.1 mph 26.5 mph N/A   Overcast
12:54 PM 10.9 °F -6.5 °F -0.9 °F 59% 30.17 in 10.0 mi NNW 17.3 mph 23.0 mph N/A   Mostly Cloudy
1:03 PM 10.4 °F -4.1 °F -0.4 °F 62% 30.11 in 10.0 mi NW 11.5 mph 20.7 mph N/A   Scattered Clouds
1:54 PM 12.0 °F -5.6 °F -0.0 °F 59% 30.17 in 10.0 mi NNW 18.4 mph 26.5 mph N/A   Partly Cloudy
2:54 PM 12.9 °F -4.4 °F -0.9 °F 54% 30.19 in 10.0 mi NW 18.4 mph 25.3 mph N/A   Clear
3:54 PM 12.9 °F -3.4 °F -0.9 °F 54% 30.21 in 10.0 mi NNW 16.1 mph - N/A   Clear
4:54 PM 12.0 °F 2.7 °F -2.9 °F 51% 30.24 in 10.0 mi NW 5.8 mph - N/A   Clear
5:54 PM 12.0 °F -4.0 °F -0.0 °F 59% 30.25 in 10.0 mi NW 15.0 mph 20.7 mph N/A   Clear
6:54 PM 10.9 °F -3.4 °F -0.9 °F 59% 30.27 in 10.0 mi WNW 11.5 mph 16.1 mph N/A   Clear
7:54 PM 10.0 °F -0.9 °F -2.0 °F 58% 30.29 in 10.0 mi NW 6.9 mph - N/A   Clear
8:54 PM 7.0 °F -1.7 °F -4.0 °F 61% 30.31 in 10.0 mi NNW 4.6 mph - N/A   Clear
9:54 PM 5.0 °F - -4.0 °F 66% 30.32 in 10.0 mi Calm Calm - N/A   Clear
10:54 PM 3.9 °F -6.9 °F -4.0 °F 70% 30.31 in 10.0 mi WNW 5.8 mph - N/A   Clear
11:54 PM 3.0 °F -8.0 °F -5.1 °F 69% 30.31 in 10.0 mi WNW 5.8 mph - N/A   Clear